Time,TemperatureF,DewpointF,PressureIn,WindDirection,WindDirectionDegrees,WindSpeedMPH,WindSpeedGustMPH,Humidity,HourlyPrecipIn,Conditions,Clouds,dailyrainin,SoftwareType,DateUTC
2013-12-12 05:18:00,23.0,16.0,30.29,NW,306,1.0,6.0,74,0.00,,---,0.00,VWS V14.01,2013-12-12 10:18:00,
2013-12-12 05:22:00,22.9,16.2,30.29,NNW,340,0.0,6.0,75,0.00,,---,0.00,VWS V14.01,2013-12-12 10:22:00,
2013-12-12 05:24:00,22.7,16.0,30.30,WNW,299,0.0,6.0,75,0.00,,---,0.00,VWS V14.01,2013-12-12 10:24:00,
2013-12-12 05:26:00,22.5,15.8,30.29,WNW,298,0.0,6.0,75,0.00,,---,0.00,VWS V14.01,2013-12-12 10:26:00,
2013-12-12 05:30:00,22.4,15.4,30.29,NW,311,0.0,6.0,74,0.00,,---,0.00,VWS V14.01,2013-12-12 10:30:00,
2013-12-12 05:32:00,22.4,15.4,30.30,NW,314,0.0,3.0,74,0.00,,---,0.00,VWS V14.01,2013-12-12 10:32:00,
2013-12-12 05:34:00,22.4,15.4,30.29,WSW,257,1.0,3.0,74,0.00,,---,0.00,VWS V14.01,2013-12-12 10:34:00,
2013-12-12 05:36:00,22.4,15.4,30.30,North,355,1.0,6.0,74,0.00,,---,0.00,VWS V14.01,2013-12-12 10:36:00,
2013-12-12 05:38:00,22.4,14.8,30.30,WNW,300,4.0,6.0,72,0.00,,---,0.00,VWS V14.01,2013-12-12 10:38:00,
2013-12-12 05:40:00,22.4,14.4,30.30,WNW,285,3.0,6.0,71,0.00,,---,0.00,VWS V14.01,2013-12-12 10:40:00,
2013-12-12 05:44:00,22.4,14.1,30.29,WNW,296,5.0,7.0,70,0.00,,---,0.00,VWS V14.01,2013-12-12 10:44:00,
2013-12-12 05:46:00,22.5,13.9,30.30,WNW,296,4.0,7.0,69,0.00,,---,0.00,VWS V14.01,2013-12-12 10:46:00,
2013-12-12 05:48:00,22.5,13.9,30.30,NNW,339,2.0,5.0,69,0.00,,---,0.00,VWS V14.01,2013-12-12 10:48:00,
2013-12-12 05:52:00,22.5,13.6,30.30,NW,304,4.0,6.0,68,0.00,,---,0.00,VWS V14.01,2013-12-12 10:52:00,
2013-12-12 05:56:00,22.4,13.1,30.30,WNW,284,3.0,6.0,67,0.00,,---,0.00,VWS V14.01,2013-12-12 10:56:00,
2013-12-12 05:58:00,22.4,13.1,30.30,WNW,284,3.0,6.0,67,0.00,,---,0.00,VWS V14.01,2013-12-12 10:58:00,
2013-12-12 06:00:00,22.4,13.1,30.30,NW,309,3.0,6.0,67,0.00,,---,0.00,VWS V14.01,2013-12-12 11:00:00,
2013-12-12 06:04:00,22.2,13.3,30.30,WSW,248,4.0,7.0,68,0.00,,---,0.00,VWS V14.01,2013-12-12 11:04:00,
2013-12-12 06:06:00,22.2,12.9,30.30,WNW,297,4.0,7.0,67,0.00,,---,0.00,VWS V14.01,2013-12-12 11:06:00,
2013-12-12 06:08:00,22.2,12.6,30.30,West,273,4.0,7.0,66,0.00,,---,0.00,VWS V14.01,2013-12-12 11:08:00,
2013-12-12 06:10:00,22.1,12.5,30.30,West,279,2.0,7.0,66,0.00,,---,0.00,VWS V14.01,2013-12-12 11:10:00,
2013-12-12 06:14:00,22.1,12.1,30.30,West,261,1.0,7.0,65,0.00,,---,0.00,VWS V14.01,2013-12-12 11:14:00,
2013-12-12 06:16:00,22.1,12.1,30.30,SW,231,2.0,7.0,65,0.00,,---,0.00,VWS V14.01,2013-12-12 11:16:00,
2013-12-12 06:18:00,21.9,11.6,30.30,WNW,285,0.0,4.0,64,0.00,,---,0.00,VWS V14.01,2013-12-12 11:18:00,
2013-12-12 06:20:00,21.9,11.6,30.30,WNW,291,3.0,5.0,64,0.00,,---,0.00,VWS V14.01,2013-12-12 11:20:00,
2013-12-12 06:22:00,21.8,11.5,30.31,WNW,301,4.0,6.0,64,0.00,,---,0.00,VWS V14.01,2013-12-12 11:22:00,
2013-12-12 06:24:00,21.8,11.2,30.31,West,271,3.0,6.0,63,0.00,,---,0.00,VWS V14.01,2013-12-12 11:24:00,
2013-12-12 06:28:00,21.8,10.4,30.31,WNW,296,5.0,10.0,61,0.00,,---,0.00,VWS V14.01,2013-12-12 11:28:00,
2013-12-12 06:30:00,21.8,9.7,30.31,WNW,303,1.0,10.0,59,0.00,,---,0.00,VWS V14.01,2013-12-12 11:30:00,
2013-12-12 06:31:00,21.8,9.7,30.31,West,279,4.0,10.0,59,0.00,,---,0.00,VWS V14.01,2013-12-12 11:31:00,
2013-12-12 06:32:00,21.8,9.7,30.31,West,267,5.0,10.0,59,0.00,,---,0.00,VWS V14.01,2013-12-12 11:32:00,
2013-12-12 06:34:00,21.8,8.9,30.31,NNE,13,5.0,10.0,57,0.00,,---,0.00,VWS V14.01,2013-12-12 11:34:00,
2013-12-12 06:36:00,21.8,8.5,30.31,NW,313,6.0,13.0,56,0.00,,---,0.00,VWS V14.01,2013-12-12 11:36:00,
2013-12-12 06:38:00,21.8,8.1,30.31,WNW,286,4.0,13.0,55,0.00,,---,0.00,VWS V14.01,2013-12-12 11:38:00,
2013-12-12 06:42:00,21.8,8.1,30.31,West,277,5.0,13.0,55,0.00,,---,0.00,VWS V14.01,2013-12-12 11:42:00,
2013-12-12 06:44:00,21.8,8.1,30.31,West,270,6.0,13.0,55,0.00,,---,0.00,VWS V14.01,2013-12-12 11:44:00,
2013-12-12 06:46:00,21.8,7.7,30.32,WNW,288,7.0,13.0,54,0.00,,---,0.00,VWS V14.01,2013-12-12 11:46:00,
2013-12-12 06:50:00,21.6,7.9,30.32,NW,325,6.0,11.0,55,0.00,,---,0.00,VWS V14.01,2013-12-12 11:50:00,
2013-12-12 06:52:00,21.6,7.5,30.32,NW,315,2.0,11.0,54,0.00,,---,0.00,VWS V14.01,2013-12-12 11:52:00,
2013-12-12 06:56:00,21.4,7.3,30.32,NNW,333,3.0,12.0,54,0.00,,---,0.00,VWS V14.01,2013-12-12 11:56:00,
2013-12-12 06:58:00,21.4,6.9,30.32,West,261,4.0,12.0,53,0.00,,---,0.00,VWS V14.01,2013-12-12 11:58:00,
2013-12-12 07:00:00,21.4,6.9,30.32,WNW,290,1.0,12.0,53,0.00,,---,0.00,VWS V14.01,2013-12-12 12:00:00,
2013-12-12 07:02:00,21.4,6.9,30.32,WNW,289,1.0,5.0,53,0.00,,---,0.00,VWS V14.01,2013-12-12 12:02:00,
2013-12-12 07:06:00,21.3,6.8,30.32,NNW,346,6.0,9.0,53,0.00,,---,0.00,VWS V14.01,2013-12-12 12:06:00,
2013-12-12 07:10:00,21.1,6.7,30.32,NW,317,7.0,11.0,53,0.00,,---,0.00,VWS V14.01,2013-12-12 12:10:00,
2013-12-12 07:12:00,21.1,6.7,30.32,WNW,296,8.0,12.0,53,0.00,,---,0.00,VWS V14.01,2013-12-12 12:12:00,
2013-12-12 07:14:00,21.1,6.2,30.32,WNW,289,3.0,12.0,52,0.00,,---,0.00,VWS V14.01,2013-12-12 12:14:00,
2013-12-12 07:16:00,21.0,6.2,30.32,North,349,5.0,11.0,52,0.00,,---,0.00,VWS V14.01,2013-12-12 12:16:00,
2013-12-12 07:20:00,21.0,5.7,30.32,West,279,0.0,11.0,51,0.00,,---,0.00,VWS V14.01,2013-12-12 12:20:00,
2013-12-12 07:24:00,21.0,5.7,30.33,West,268,6.0,11.0,51,0.00,,---,0.00,VWS V14.01,2013-12-12 12:24:00,
2013-12-12 07:26:00,21.0,5.3,30.33,WNW,291,7.0,16.0,50,0.00,,---,0.00,VWS V14.01,2013-12-12 12:26:00,
2013-12-12 07:28:00,21.0,5.3,30.33,WNW,296,2.0,16.0,50,0.00,,---,0.00,VWS V14.01,2013-12-12 12:28:00,
2013-12-12 07:30:00,21.0,5.3,30.33,NW,305,3.0,16.0,50,0.00,,---,0.00,VWS V14.01,2013-12-12 12:30:00,
2013-12-12 07:32:00,21.0,5.3,30.33,West,273,9.0,10.0,50,0.00,,---,0.00,VWS V14.01,2013-12-12 12:32:00,
2013-12-12 07:36:00,20.8,5.5,30.34,West,261,6.0,10.0,51,0.00,,---,0.00,VWS V14.01,2013-12-12 12:36:00,
2013-12-12 07:38:00,20.6,5.3,30.34,NNW,327,2.0,10.0,51,0.00,,---,0.00,VWS V14.01,2013-12-12 12:38:00,
2013-12-12 07:42:00,20.5,5.3,30.34,WNW,292,6.0,12.0,51,0.00,,---,0.00,VWS V14.01,2013-12-12 12:42:00,
2013-12-12 07:44:00,20.5,5.7,30.34,West,271,4.0,12.0,52,0.00,,---,0.00,VWS V14.01,2013-12-12 12:44:00,
2013-12-12 07:46:00,20.5,5.7,30.34,West,261,5.0,8.0,52,0.00,,---,0.00,VWS V14.01,2013-12-12 12:46:00,
2013-12-12 07:48:00,20.5,5.3,30.34,NNW,342,4.0,9.0,51,0.00,,---,0.00,VWS V14.01,2013-12-12 12:48:00,
2013-12-12 07:50:00,20.5,5.3,30.34,WSW,257,2.0,11.0,51,0.00,,---,0.00,VWS V14.01,2013-12-12 12:50:00,
2013-12-12 07:54:00,20.5,4.8,30.34,WSW,248,4.0,11.0,50,0.00,,---,0.00,VWS V14.01,2013-12-12 12:54:00,
2013-12-12 07:56:00,20.5,4.8,30.35,West,260,0.0,11.0,50,0.00,,---,0.00,VWS V14.01,2013-12-12 12:56:00,
2013-12-12 07:58:00,20.6,4.9,30.35,WNW,292,3.0,11.0,50,0.00,,---,0.00,VWS V14.01,2013-12-12 12:58:00,
2013-12-12 08:04:00,20.6,4.5,30.35,WNW,290,0.0,9.0,49,0.00,,---,0.00,VWS V14.01,2013-12-12 13:04:00,
2013-12-12 08:06:00,20.6,4.5,30.35,WNW,290,3.0,9.0,49,0.00,,---,0.00,VWS V14.01,2013-12-12 13:06:00,
2013-12-12 08:10:00,20.6,4.5,30.35,WSW,246,4.0,9.0,49,0.00,,---,0.00,VWS V14.01,2013-12-12 13:10:00,
2013-12-12 08:12:00,20.8,4.2,30.35,West,272,5.0,9.0,48,0.00,,---,0.00,VWS V14.01,2013-12-12 13:12:00,
2013-12-12 08:16:00,20.8,4.2,30.36,WSW,243,4.0,10.0,48,0.00,,---,0.00,VWS V14.01,2013-12-12 13:16:00,
2013-12-12 08:18:00,21.0,3.9,30.35,WNW,300,1.0,9.0,47,0.00,,---,0.00,VWS V14.01,2013-12-12 13:18:00,
2013-12-12 08:22:00,21.0,4.4,30.36,WNW,292,3.0,9.0,48,0.00,,---,0.00,VWS V14.01,2013-12-12 13:22:00,
2013-12-12 08:26:00,21.0,4.4,30.35,WNW,302,4.0,9.0,48,0.00,,---,0.00,VWS V14.01,2013-12-12 13:26:00,
2013-12-12 08:29:00,21.0,4.4,30.35,WNW,292,5.0,9.0,48,0.00,,---,0.00,VWS V14.01,2013-12-12 13:29:00,
2013-12-12 08:31:00,21.0,4.4,30.35,NW,313,8.0,9.0,48,0.00,,---,0.00,VWS V14.01,2013-12-12 13:31:00,
2013-12-12 08:33:00,21.0,4.8,30.36,NW,321,2.0,8.0,49,0.00,,---,0.00,VWS V14.01,2013-12-12 13:33:00,
2013-12-12 08:37:00,20.8,4.7,30.36,NNW,331,3.0,8.0,49,0.00,,---,0.00,VWS V14.01,2013-12-12 13:37:00,
2013-12-12 08:39:00,20.8,4.7,30.36,West,268,4.0,8.0,49,0.00,,---,0.00,VWS V14.01,2013-12-12 13:39:00,
2013-12-12 08:41:00,20.8,4.7,30.36,WNW,286,4.0,8.0,49,0.00,,---,0.00,VWS V14.01,2013-12-12 13:41:00,
2013-12-12 08:43:00,20.8,4.7,30.35,West,277,3.0,11.0,49,0.00,,---,0.00,VWS V14.01,2013-12-12 13:43:00,
2013-12-12 08:45:00,21.0,4.8,30.35,WNW,295,5.0,11.0,49,0.00,,---,0.00,VWS V14.01,2013-12-12 13:45:00,
2013-12-12 08:46:00,21.0,4.8,30.35,WSW,248,5.0,11.0,49,0.00,,---,0.00,VWS V14.01,2013-12-12 13:46:00,
2013-12-12 08:51:00,21.1,4.9,30.36,WNW,300,4.0,10.0,49,0.00,,---,0.00,VWS V14.01,2013-12-12 13:51:00,
2013-12-12 08:53:00,21.1,4.5,30.36,WNW,290,6.0,10.0,48,0.00,,---,0.00,VWS V14.01,2013-12-12 13:53:00,
2013-12-12 08:55:00,21.3,4.7,30.36,WNW,293,3.0,10.0,48,0.00,,---,0.00,VWS V14.01,2013-12-12 13:55:00,
2013-12-12 08:57:00,21.3,4.7,30.36,WSW,247,3.0,10.0,48,0.00,,---,0.00,VWS V14.01,2013-12-12 13:57:00,
2013-12-12 09:01:00,21.4,4.8,30.36,WNW,303,2.0,10.0,48,0.00,,---,0.00,VWS V14.01,2013-12-12 14:01:00,
2013-12-12 09:03:00,21.4,4.8,30.36,NW,309,1.0,8.0,48,0.00,,---,0.00,VWS V14.01,2013-12-12 14:03:00,
2013-12-12 09:07:00,21.4,4.8,30.36,WNW,297,6.0,8.0,48,0.00,,---,0.00,VWS V14.01,2013-12-12 14:07:00,
2013-12-12 09:09:00,21.4,4.8,30.36,West,275,5.0,8.0,48,0.00,,---,0.00,VWS V14.01,2013-12-12 14:09:00,
2013-12-12 09:11:00,21.4,4.3,30.36,WNW,282,2.0,9.0,47,0.00,,---,0.00,VWS V14.01,2013-12-12 14:11:00,
2013-12-12 09:13:00,21.4,4.3,30.36,WNW,289,5.0,9.0,47,0.00,,---,0.00,VWS V14.01,2013-12-12 14:13:00,
2013-12-12 09:16:00,21.6,4.0,30.36,WNW,282,9.0,12.0,46,0.00,,---,0.00,VWS V14.01,2013-12-12 14:16:00,
2013-12-12 09:19:00,21.6,4.5,30.36,West,273,1.0,11.0,47,0.00,,---,0.00,VWS V14.01,2013-12-12 14:19:00,
2013-12-12 09:23:00,21.6,4.0,30.36,WSW,252,7.0,11.0,46,0.00,,---,0.00,VWS V14.01,2013-12-12 14:23:00,
2013-12-12 09:25:00,21.8,4.2,30.36,NNW,346,3.0,11.0,46,0.00,,---,0.00,VWS V14.01,2013-12-12 14:25:00,
2013-12-12 09:27:00,21.8,4.2,30.36,WSW,244,7.0,11.0,46,0.00,,---,0.00,VWS V14.01,2013-12-12 14:27:00,
2013-12-12 09:29:00,21.9,4.3,30.36,WSW,255,5.0,14.0,46,0.00,,---,0.00,VWS V14.01,2013-12-12 14:29:00,
2013-12-12 09:31:00,21.9,3.8,30.37,West,259,3.0,14.0,45,0.00,,---,0.00,VWS V14.01,2013-12-12 14:31:00,
2013-12-12 09:33:00,22.1,3.5,30.36,West,263,4.0,7.0,44,0.00,,---,0.00,VWS V14.01,2013-12-12 14:33:00,
2013-12-12 09:39:00,22.2,4.1,30.36,WSW,254,4.0,12.0,45,0.00,,---,0.00,VWS V14.01,2013-12-12 14:39:00,
2013-12-12 09:41:00,22.4,4.3,30.36,NNW,346,4.0,12.0,45,0.00,,---,0.00,VWS V14.01,2013-12-12 14:41:00,
2013-12-12 09:43:00,22.5,3.9,30.37,WSW,248,5.0,12.0,44,0.00,,---,0.00,VWS V14.01,2013-12-12 14:43:00,
2013-12-12 09:45:00,22.5,3.9,30.37,WNW,293,4.0,12.0,44,0.00,,---,0.00,VWS V14.01,2013-12-12 14:45:00,
2013-12-12 09:46:00,22.7,4.1,30.37,WNW,286,5.0,12.0,44,0.00,,---,0.00,VWS V14.01,2013-12-12 14:46:00,
2013-12-12 09:47:00,22.7,4.1,30.37,NW,316,6.0,6.0,44,0.00,,---,0.00,VWS V14.01,2013-12-12 14:47:00,
2013-12-12 09:53:00,22.9,4.8,30.37,West,261,4.0,11.0,45,0.00,,---,0.00,VWS V14.01,2013-12-12 14:53:00,
2013-12-12 09:57:00,23.0,4.3,30.37,West,275,3.0,12.0,44,0.00,,---,0.00,VWS V14.01,2013-12-12 14:57:00,
2013-12-12 09:59:00,23.0,3.8,30.37,WSW,248,7.0,12.0,43,0.00,,---,0.00,VWS V14.01,2013-12-12 14:59:00,
2013-12-12 10:03:00,23.0,4.3,30.37,West,274,4.0,9.0,44,0.00,,---,0.00,VWS V14.01,2013-12-12 15:03:00,
2013-12-12 10:07:00,23.3,5.1,30.37,WSW,257,9.0,11.0,45,0.00,,---,0.00,VWS V14.01,2013-12-12 15:07:00,
2013-12-12 10:09:00,23.3,5.6,30.37,WNW,302,13.0,15.0,46,0.00,,---,0.00,VWS V14.01,2013-12-12 15:09:00,
2013-12-12 10:13:00,23.3,4.6,30.37,WNW,303,6.0,15.0,44,0.00,,---,0.00,VWS V14.01,2013-12-12 15:13:00,
2013-12-12 10:15:00,23.5,4.8,30.37,WNW,290,6.0,15.0,44,0.00,,---,0.00,VWS V14.01,2013-12-12 15:15:00,
2013-12-12 10:16:00,23.5,5.3,30.37,WSW,242,7.0,15.0,45,0.00,,---,0.00,VWS V14.01,2013-12-12 15:16:00,
2013-12-12 10:21:00,23.3,5.1,30.36,WSW,255,5.0,15.0,45,0.00,,---,0.00,VWS V14.01,2013-12-12 15:21:00,
2013-12-12 10:23:00,23.5,5.3,30.37,WNW,303,5.0,15.0,45,0.00,,---,0.00,VWS V14.01,2013-12-12 15:23:00,
2013-12-12 10:25:00,23.5,4.8,30.36,WSW,256,7.0,15.0,44,0.00,,---,0.00,VWS V14.01,2013-12-12 15:25:00,
2013-12-12 10:27:00,23.6,5.4,30.36,West,273,7.0,15.0,45,0.00,,---,0.00,VWS V14.01,2013-12-12 15:27:00,
2013-12-12 10:29:00,23.6,4.9,30.36,WSW,242,10.0,15.0,44,0.00,,---,0.00,VWS V14.01,2013-12-12 15:29:00,
2013-12-12 10:31:00,23.6,5.4,30.36,WSW,246,5.0,15.0,45,0.00,,---,0.00,VWS V14.01,2013-12-12 15:31:00,
2013-12-12 10:37:00,24.1,5.8,30.35,NW,311,4.0,13.0,45,0.00,,---,0.00,VWS V14.01,2013-12-12 15:37:00,
2013-12-12 10:39:00,24.1,5.8,30.35,WNW,296,5.0,13.0,45,0.00,,---,0.00,VWS V14.01,2013-12-12 15:39:00,
2013-12-12 10:43:00,24.2,4.9,30.35,West,265,13.0,13.0,43,0.00,,---,0.00,VWS V14.01,2013-12-12 15:43:00,
2013-12-12 10:45:00,24.2,5.9,30.35,North,360,10.0,13.0,45,0.00,,---,0.00,VWS V14.01,2013-12-12 15:45:00,
2013-12-12 10:46:00,24.1,5.3,30.35,West,267,6.0,14.0,44,0.00,,---,0.00,VWS V14.01,2013-12-12 15:46:00,
2013-12-12 10:51:00,24.1,4.8,30.35,WNW,298,2.0,13.0,43,0.00,,---,0.00,VWS V14.01,2013-12-12 15:51:00,
2013-12-12 10:53:00,24.2,4.9,30.34,WNW,297,1.0,13.0,43,0.00,,---,0.00,VWS V14.01,2013-12-12 15:53:00,
2013-12-12 10:57:00,24.2,4.9,30.34,NE,40,10.0,13.0,43,0.00,,---,0.00,VWS V14.01,2013-12-12 15:57:00,
2013-12-12 10:59:00,24.4,5.1,30.34,ENE,71,5.0,13.0,43,0.00,,---,0.00,VWS V14.01,2013-12-12 15:59:00,
2013-12-12 11:01:00,24.4,5.1,30.34,East,96,3.0,15.0,43,0.00,,---,0.00,VWS V14.01,2013-12-12 16:01:00,
2013-12-12 11:05:00,24.4,4.6,30.34,West,261,6.0,11.0,42,0.00,,---,0.00,VWS V14.01,2013-12-12 16:05:00,
2013-12-12 11:09:00,24.5,5.2,30.33,NW,323,5.0,11.0,43,0.00,,---,0.00,VWS V14.01,2013-12-12 16:09:00,
2013-12-12 11:11:00,24.7,5.9,30.33,NW,308,2.0,11.0,44,0.00,,---,0.00,VWS V14.01,2013-12-12 16:11:00,
2013-12-12 11:13:00,24.7,5.9,30.33,NW,306,3.0,11.0,44,0.00,,---,0.00,VWS V14.01,2013-12-12 16:13:00,
2013-12-12 11:15:00,24.7,5.4,30.33,West,276,12.0,12.0,43,0.00,,---,0.00,VWS V14.01,2013-12-12 16:15:00,
2013-12-12 11:16:00,24.7,5.4,30.33,NNW,336,5.0,12.0,43,0.00,,---,0.00,VWS V14.01,2013-12-12 16:16:00,
2013-12-12 11:17:00,24.7,5.9,30.33,NNW,336,5.0,7.0,44,0.00,,---,0.00,VWS V14.01,2013-12-12 16:17:00,
2013-12-12 11:21:00,24.8,5.0,30.33,NNW,329,1.0,9.0,42,0.00,,---,0.00,VWS V14.01,2013-12-12 16:21:00,
2013-12-12 11:23:00,24.8,5.5,30.33,NNW,327,1.0,9.0,43,0.00,,---,0.00,VWS V14.01,2013-12-12 16:23:00,
2013-12-12 11:25:00,24.8,5.5,30.32,WNW,291,2.0,9.0,43,0.00,,---,0.00,VWS V14.01,2013-12-12 16:25:00,
2013-12-12 11:29:00,24.8,5.0,30.32,WNW,296,9.0,14.0,42,0.00,,---,0.00,VWS V14.01,2013-12-12 16:29:00,
2013-12-12 11:31:00,24.8,5.0,30.32,NW,315,2.0,14.0,42,0.00,,---,0.00,VWS V14.01,2013-12-12 16:31:00,
2013-12-12 11:35:00,24.7,4.9,30.31,West,272,6.0,14.0,42,0.00,,---,0.00,VWS V14.01,2013-12-12 16:35:00,
2013-12-12 11:37:00,24.7,4.9,30.31,WNW,294,5.0,14.0,42,0.00,,---,0.00,VWS V14.01,2013-12-12 16:37:00,
2013-12-12 11:39:00,24.7,4.9,30.31,WNW,284,2.0,14.0,42,0.00,,---,0.00,VWS V14.01,2013-12-12 16:39:00,
2013-12-12 11:41:00,24.7,4.4,30.31,WSW,252,10.0,14.0,41,0.00,,---,0.00,VWS V14.01,2013-12-12 16:41:00,
2013-12-12 11:43:00,24.7,4.9,30.31,NW,316,4.0,14.0,42,0.00,,---,0.00,VWS V14.01,2013-12-12 16:43:00,
2013-12-12 11:46:00,24.8,5.0,30.31,WNW,300,6.0,14.0,42,0.00,,---,0.00,VWS V14.01,2013-12-12 16:46:00,
2013-12-12 11:47:00,24.8,5.0,30.31,WNW,298,3.0,7.0,42,0.00,,---,0.00,VWS V14.01,2013-12-12 16:47:00,
2013-12-12 11:51:00,25.0,3.5,30.31,West,277,4.0,10.0,39,0.00,,---,0.00,VWS V14.01,2013-12-12 16:51:00,
2013-12-12 11:55:00,25.0,4.6,30.30,WNW,290,2.0,11.0,41,0.00,,---,0.00,VWS V14.01,2013-12-12 16:55:00,
2013-12-12 11:57:00,25.0,5.2,30.30,NW,321,4.0,11.0,42,0.00,,---,0.00,VWS V14.01,2013-12-12 16:57:00,
2013-12-12 12:01:00,25.1,5.2,30.30,West,277,9.0,11.0,42,0.00,,---,0.00,VWS V14.01,2013-12-12 17:01:00,
2013-12-12 12:03:00,25.3,5.9,30.30,NE,46,2.0,9.0,43,0.00,,---,0.00,VWS V14.01,2013-12-12 17:03:00,
2013-12-12 12:07:00,25.3,5.9,30.30,NW,323,2.0,12.0,43,0.00,,---,0.00,VWS V14.01,2013-12-12 17:07:00,
2013-12-12 12:09:00,25.4,5.5,30.30,WSW,252,5.0,12.0,42,0.00,,---,0.00,VWS V14.01,2013-12-12 17:09:00,
2013-12-12 12:13:00,25.6,6.2,30.29,NW,319,2.0,12.0,43,0.00,,---,0.00,VWS V14.01,2013-12-12 17:13:00,
2013-12-12 12:15:00,25.7,6.3,30.29,WNW,302,3.0,12.0,43,0.00,,---,0.00,VWS V14.01,2013-12-12 17:15:00,
2013-12-12 12:17:00,25.7,6.3,30.29,WSW,240,4.0,5.0,43,0.00,,---,0.00,VWS V14.01,2013-12-12 17:17:00,
2013-12-12 12:23:00,25.6,6.2,30.29,WNW,302,4.0,11.0,43,0.00,,---,0.00,VWS V14.01,2013-12-12 17:23:00,
2013-12-12 12:25:00,25.4,6.0,30.29,WNW,287,7.0,11.0,43,0.00,,---,0.00,VWS V14.01,2013-12-12 17:25:00,
2013-12-12 12:27:00,25.4,5.5,30.29,SW,223,4.0,11.0,42,0.00,,---,0.00,VWS V14.01,2013-12-12 17:27:00,
2013-12-12 12:29:00,25.4,6.0,30.29,WSW,254,3.0,11.0,43,0.00,,---,0.00,VWS V14.01,2013-12-12 17:29:00,
2013-12-12 12:31:00,25.6,7.2,30.29,WSW,243,6.0,11.0,45,0.00,,---,0.00,VWS V14.01,2013-12-12 17:31:00,
2013-12-12 12:35:00,25.7,7.3,30.29,WSW,249,4.0,11.0,45,0.00,,---,0.00,VWS V14.01,2013-12-12 17:35:00,
2013-12-12 12:37:00,25.7,6.8,30.28,WNW,286,3.0,14.0,44,0.00,,---,0.00,VWS V14.01,2013-12-12 17:37:00,
2013-12-12 12:39:00,25.6,6.2,30.29,West,275,6.0,14.0,43,0.00,,---,0.00,VWS V14.01,2013-12-12 17:39:00,
2013-12-12 12:41:00,25.6,7.2,30.29,WSW,256,1.0,14.0,45,0.00,,---,0.00,VWS V14.01,2013-12-12 17:41:00,
2013-12-12 12:43:00,25.4,6.5,30.29,WSW,250,2.0,14.0,44,0.00,,---,0.00,VWS V14.01,2013-12-12 17:43:00,
2013-12-12 12:45:00,25.4,6.0,30.29,WSW,240,2.0,14.0,43,0.00,,---,0.00,VWS V14.01,2013-12-12 17:45:00,
2013-12-12 12:46:00,25.4,6.0,30.29,WSW,238,0.0,14.0,43,0.00,,---,0.00,VWS V14.01,2013-12-12 17:46:00,
2013-12-12 12:49:00,25.7,7.8,30.28,NW,312,4.0,9.0,46,0.00,,---,0.00,VWS V14.01,2013-12-12 17:49:00,
2013-12-12 12:51:00,25.7,6.3,30.28,WNW,285,6.0,9.0,43,0.00,,---,0.00,VWS V14.01,2013-12-12 17:51:00,
2013-12-12 12:53:00,25.7,6.8,30.28,WNW,292,4.0,10.0,44,0.00,,---,0.00,VWS V14.01,2013-12-12 17:53:00,
2013-12-12 12:57:00,25.8,6.9,30.28,WSW,257,3.0,10.0,44,0.00,,---,0.00,VWS V14.01,2013-12-12 17:57:00,
2013-12-12 12:59:00,25.8,6.4,30.28,NW,305,1.0,10.0,43,0.00,,---,0.00,VWS V14.01,2013-12-12 17:59:00,
2013-12-12 13:03:00,25.8,7.4,30.28,WSW,250,4.0,7.0,45,0.00,,---,0.00,VWS V14.01,2013-12-12 18:03:00,
2013-12-12 13:05:00,25.8,6.9,30.28,WNW,301,1.0,8.0,44,0.00,,---,0.00,VWS V14.01,2013-12-12 18:05:00,
2013-12-12 13:07:00,25.8,7.4,30.28,West,259,5.0,12.0,45,0.00,,---,0.00,VWS V14.01,2013-12-12 18:07:00,
2013-12-12 13:09:00,25.7,6.8,30.28,WSW,257,4.0,13.0,44,0.00,,---,0.00,VWS V14.01,2013-12-12 18:09:00,
2013-12-12 13:13:00,25.7,6.8,30.28,West,264,2.0,13.0,44,0.00,,---,0.00,VWS V14.01,2013-12-12 18:13:00,
2013-12-12 13:15:00,25.8,6.9,30.27,WNW,286,2.0,13.0,44,0.00,,---,0.00,VWS V14.01,2013-12-12 18:15:00,
2013-12-12 13:16:00,25.8,6.9,30.27,WNW,294,7.0,13.0,44,0.00,,---,0.00,VWS V14.01,2013-12-12 18:16:00,
2013-12-12 13:17:00,26.0,7.1,30.27,WSW,248,5.0,11.0,44,0.00,,---,0.00,VWS V14.01,2013-12-12 18:17:00,
2013-12-12 13:19:00,26.0,6.6,30.27,West,269,5.0,11.0,43,0.00,,---,0.00,VWS V14.01,2013-12-12 18:19:00,
2013-12-12 13:23:00,26.0,6.6,30.27,WSW,252,5.0,11.0,43,0.00,,---,0.00,VWS V14.01,2013-12-12 18:23:00,
2013-12-12 13:25:00,26.0,7.1,30.27,WSW,251,1.0,11.0,44,0.00,,---,0.00,VWS V14.01,2013-12-12 18:25:00,
2013-12-12 13:29:00,26.0,7.6,30.27,NW,319,3.0,11.0,45,0.00,,---,0.00,VWS V14.01,2013-12-12 18:29:00,
2013-12-12 13:31:00,26.1,7.2,30.27,NW,321,1.0,11.0,44,0.00,,---,0.00,VWS V14.01,2013-12-12 18:31:00,
2013-12-12 13:33:00,26.3,6.9,30.27,West,259,3.0,7.0,43,0.00,,---,0.00,VWS V14.01,2013-12-12 18:33:00,
2013-12-12 13:39:00,26.1,5.6,30.26,West,277,0.0,11.0,41,0.00,,---,0.00,VWS V14.01,2013-12-12 18:39:00,
2013-12-12 13:41:00,26.1,5.1,30.26,NW,309,5.0,11.0,40,0.00,,---,0.00,VWS V14.01,2013-12-12 18:41:00,
2013-12-12 13:45:00,26.3,5.3,30.26,WSW,238,3.0,11.0,40,0.00,,---,0.00,VWS V14.01,2013-12-12 18:45:00,
2013-12-12 13:46:00,26.4,5.9,30.26,WNW,299,4.0,11.0,41,0.00,,---,0.00,VWS V14.01,2013-12-12 18:46:00,
2013-12-12 13:51:00,26.6,5.6,30.26,NW,324,4.0,7.0,40,0.00,,---,0.00,VWS V14.01,2013-12-12 18:51:00,
2013-12-12 13:53:00,26.6,5.0,30.26,NW,323,12.0,12.0,39,0.00,,---,0.00,VWS V14.01,2013-12-12 18:53:00,
2013-12-12 13:57:00,26.3,4.7,30.26,WSW,252,4.0,12.0,39,0.00,,---,0.00,VWS V14.01,2013-12-12 18:57:00,
2013-12-12 13:59:00,26.3,4.7,30.26,West,266,6.0,12.0,39,0.00,,---,0.00,VWS V14.01,2013-12-12 18:59:00,
2013-12-12 14:01:00,26.1,5.1,30.26,West,268,3.0,5.0,40,0.00,,---,0.00,VWS V14.01,2013-12-12 19:01:00,
2013-12-12 14:05:00,26.3,5.8,30.26,WSW,252,2.0,8.0,41,0.00,,---,0.00,VWS V14.01,2013-12-12 19:05:00,
2013-12-12 14:09:00,26.4,4.8,30.26,WSW,245,2.0,10.0,39,0.00,,---,0.00,VWS V14.01,2013-12-12 19:09:00,
2013-12-12 14:15:00,26.6,5.0,30.26,WSW,253,9.0,10.0,39,0.00,,---,0.00,VWS V14.01,2013-12-12 19:15:00,
2013-12-12 14:17:00,26.4,3.7,30.26,WSW,252,1.0,6.0,37,0.00,,---,0.00,VWS V14.01,2013-12-12 19:17:00,
2013-12-12 14:23:00,26.7,4.5,30.26,West,276,2.0,8.0,38,0.00,,---,0.00,VWS V14.01,2013-12-12 19:23:00,
2013-12-12 14:25:00,26.7,4.5,30.26,NW,304,0.0,10.0,38,0.00,,---,0.00,VWS V14.01,2013-12-12 19:25:00,
2013-12-12 14:27:00,26.7,4.5,30.26,WSW,242,8.0,11.0,38,0.00,,---,0.00,VWS V14.01,2013-12-12 19:27:00,
2013-12-12 14:29:00,26.4,4.2,30.26,West,273,12.0,12.0,38,0.00,,---,0.00,VWS V14.01,2013-12-12 19:29:00,
2013-12-12 14:31:00,26.3,3.6,30.26,SSW,205,5.0,12.0,37,0.00,,---,0.00,VWS V14.01,2013-12-12 19:31:00,
2013-12-12 14:33:00,26.1,3.4,30.26,WSW,255,4.0,8.0,37,0.00,,---,0.00,VWS V14.01,2013-12-12 19:33:00,
2013-12-12 14:35:00,26.1,4.0,30.26,WSW,249,3.0,8.0,38,0.00,,---,0.00,VWS V14.01,2013-12-12 19:35:00,
2013-12-12 14:37:00,26.1,4.0,30.26,West,261,3.0,10.0,38,0.00,,---,0.00,VWS V14.01,2013-12-12 19:37:00,
2013-12-12 14:39:00,26.1,3.4,30.26,SW,231,12.0,12.0,37,0.00,,---,0.00,VWS V14.01,2013-12-12 19:39:00,
2013-12-12 14:41:00,26.0,3.9,30.26,West,266,5.0,12.0,38,0.00,,---,0.00,VWS V14.01,2013-12-12 19:41:00,
2013-12-12 14:45:00,25.8,4.3,30.26,WSW,250,5.0,12.0,39,0.00,,---,0.00,VWS V14.01,2013-12-12 19:45:00,
2013-12-12 14:47:00,25.8,3.1,30.26,WSW,242,2.0,6.0,37,0.00,,---,0.00,VWS V14.01,2013-12-12 19:47:00,
2013-12-12 14:51:00,25.7,3.6,30.25,SW,236,6.0,10.0,38,0.00,,---,0.00,VWS V14.01,2013-12-12 19:51:00,
2013-12-12 14:54:00,25.6,3.5,30.25,West,274,10.0,10.0,38,0.00,,---,0.00,VWS V14.01,2013-12-12 19:54:00,
2013-12-12 15:00:00,25.6,3.5,30.25,WSW,246,2.0,11.0,38,0.00,,---,0.00,VWS V14.01,2013-12-12 20:00:00,
2013-12-12 15:02:00,25.6,3.5,30.25,West,259,4.0,4.0,38,0.00,,---,0.00,VWS V14.01,2013-12-12 20:02:00,
2013-12-12 15:04:00,25.6,3.5,30.25,SW,232,1.0,5.0,38,0.00,,---,0.00,VWS V14.01,2013-12-12 20:04:00,
2013-12-12 15:06:00,25.6,3.5,30.25,WSW,253,4.0,6.0,38,0.00,,---,0.00,VWS V14.01,2013-12-12 20:06:00,
2013-12-12 15:08:00,25.6,3.0,30.25,WSW,256,2.0,8.0,37,0.00,,---,0.00,VWS V14.01,2013-12-12 20:08:00,
2013-12-12 15:14:00,25.6,3.5,30.25,West,269,5.0,12.0,38,0.00,,---,0.00,VWS V14.01,2013-12-12 20:14:00,
2013-12-12 15:16:00,25.6,3.5,30.25,West,268,5.0,12.0,38,0.00,,---,0.00,VWS V14.01,2013-12-12 20:16:00,
2013-12-12 15:18:00,25.6,3.5,30.25,West,280,6.0,8.0,38,0.00,,---,0.00,VWS V14.01,2013-12-12 20:18:00,
2013-12-12 15:20:00,25.6,3.5,30.25,West,269,3.0,8.0,38,0.00,,---,0.00,VWS V14.01,2013-12-12 20:20:00,
2013-12-12 15:22:00,25.4,3.9,30.25,SW,228,2.0,8.0,39,0.00,,---,0.00,VWS V14.01,2013-12-12 20:22:00,
2013-12-12 15:24:00,25.4,3.3,30.25,West,259,3.0,8.0,38,0.00,,---,0.00,VWS V14.01,2013-12-12 20:24:00,
2013-12-12 15:26:00,25.4,3.3,30.25,West,279,4.0,8.0,38,0.00,,---,0.00,VWS V14.01,2013-12-12 20:26:00,
2013-12-12 15:28:00,25.4,3.3,30.25,WSW,244,0.0,8.0,38,0.00,,---,0.00,VWS V14.01,2013-12-12 20:28:00,
2013-12-12 15:30:00,25.4,3.3,30.25,WSW,243,3.0,8.0,38,0.00,,---,0.00,VWS V14.01,2013-12-12 20:30:00,
2013-12-12 15:32:00,25.4,3.3,30.25,WSW,239,0.0,3.0,38,0.00,,---,0.00,VWS V14.01,2013-12-12 20:32:00,
2013-12-12 15:36:00,25.4,3.3,30.25,SW,229,2.0,6.0,38,0.00,,---,0.00,VWS V14.01,2013-12-12 20:36:00,
2013-12-12 15:38:00,25.4,3.9,30.25,SW,226,0.0,6.0,39,0.00,,---,0.00,VWS V14.01,2013-12-12 20:38:00,
2013-12-12 15:42:00,25.4,4.5,30.25,WSW,250,3.0,10.0,40,0.00,,---,0.00,VWS V14.01,2013-12-12 20:42:00,
2013-12-12 15:44:00,25.3,3.3,30.25,West,279,6.0,10.0,38,0.00,,---,0.00,VWS V14.01,2013-12-12 20:44:00,
2013-12-12 15:46:00,25.3,4.4,30.25,WSW,254,7.0,11.0,40,0.00,,---,0.00,VWS V14.01,2013-12-12 20:46:00,
2013-12-12 15:52:00,25.1,4.7,30.26,WSW,251,7.0,11.0,41,0.00,,---,0.00,VWS V14.01,2013-12-12 20:52:00,
2013-12-12 15:54:00,25.0,5.2,30.26,South,184,5.0,11.0,42,0.00,,---,0.00,VWS V14.01,2013-12-12 20:54:00,
2013-12-12 15:58:00,24.8,4.4,30.25,WSW,256,4.0,11.0,41,0.00,,---,0.00,VWS V14.01,2013-12-12 20:58:00,
2013-12-12 16:00:00,24.8,5.0,30.26,SW,234,1.0,11.0,42,0.00,,---,0.00,VWS V14.01,2013-12-12 21:00:00,
2013-12-12 16:01:00,24.8,5.0,30.26,WSW,240,4.0,11.0,42,0.00,,---,0.00,VWS V14.01,2013-12-12 21:01:00,
2013-12-12 16:04:00,24.7,4.9,30.26,WSW,244,4.0,6.0,42,0.00,,---,0.00,VWS V14.01,2013-12-12 21:04:00,
2013-12-12 16:06:00,24.7,4.9,30.26,WSW,240,1.0,6.0,42,0.00,,---,0.00,VWS V14.01,2013-12-12 21:06:00,
2013-12-12 16:08:00,24.5,5.2,30.25,SW,236,3.0,6.0,43,0.00,,---,0.00,VWS V14.01,2013-12-12 21:08:00,
2013-12-12 16:10:00,24.5,5.7,30.25,WSW,257,0.0,6.0,44,0.00,,---,0.00,VWS V14.01,2013-12-12 21:10:00,
2013-12-12 16:16:00,24.2,5.4,30.25,WSW,252,10.0,10.0,44,0.00,,---,0.00,VWS V14.01,2013-12-12 21:16:00,
2013-12-12 16:18:00,24.2,5.4,30.25,SW,231,2.0,5.0,44,0.00,,---,0.00,VWS V14.01,2013-12-12 21:18:00,
2013-12-12 16:20:00,24.2,5.4,30.25,WSW,246,2.0,5.0,44,0.00,,---,0.00,VWS V14.01,2013-12-12 21:20:00,
2013-12-12 16:22:00,24.1,5.8,30.25,WSW,246,2.0,5.0,45,0.00,,---,0.00,VWS V14.01,2013-12-12 21:22:00,
2013-12-12 16:26:00,24.1,5.8,30.25,West,261,3.0,5.0,45,0.00,,---,0.00,VWS V14.01,2013-12-12 21:26:00,
2013-12-12 16:28:00,23.9,5.7,30.25,West,273,2.0,5.0,45,0.00,,---,0.00,VWS V14.01,2013-12-12 21:28:00,
2013-12-12 16:30:00,23.9,6.1,30.25,SW,232,0.0,5.0,46,0.00,,---,0.00,VWS V14.01,2013-12-12 21:30:00,
2013-12-12 16:31:00,23.8,6.1,30.25,SW,215,0.0,5.0,46,0.00,,---,0.00,VWS V14.01,2013-12-12 21:31:00,
2013-12-12 16:32:00,23.8,6.1,30.25,WSW,253,4.0,5.0,46,0.00,,---,0.00,VWS V14.01,2013-12-12 21:32:00,
2013-12-12 16:34:00,23.8,6.1,30.26,WSW,252,2.0,5.0,46,0.00,,---,0.00,VWS V14.01,2013-12-12 21:34:00,
2013-12-12 16:36:00,23.6,5.4,30.26,WSW,246,5.0,5.0,45,0.00,,---,0.00,VWS V14.01,2013-12-12 21:36:00,
2013-12-12 16:38:00,23.6,5.4,30.25,SW,234,1.0,5.0,45,0.00,,---,0.00,VWS V14.01,2013-12-12 21:38:00,
2013-12-12 16:40:00,23.6,5.4,30.25,WSW,246,3.0,6.0,45,0.00,,---,0.00,VWS V14.01,2013-12-12 21:40:00,
2013-12-12 16:42:00,23.6,5.4,30.25,WSW,237,4.0,6.0,45,0.00,,---,0.00,VWS V14.01,2013-12-12 21:42:00,
2013-12-12 16:44:00,23.6,5.4,30.25,WSW,247,4.0,6.0,45,0.00,,---,0.00,VWS V14.01,2013-12-12 21:44:00,
2013-12-12 16:46:00,23.6,4.9,30.25,WSW,239,2.0,6.0,44,0.00,,---,0.00,VWS V14.01,2013-12-12 21:46:00,
2013-12-12 16:50:00,23.5,5.3,30.25,WSW,238,1.0,2.0,45,0.00,,---,0.00,VWS V14.01,2013-12-12 21:50:00,
2013-12-12 16:52:00,23.3,5.1,30.25,SW,227,2.0,3.0,45,0.00,,---,0.00,VWS V14.01,2013-12-12 21:52:00,
2013-12-12 16:54:00,23.3,4.6,30.25,WSW,240,1.0,8.0,44,0.00,,---,0.00,VWS V14.01,2013-12-12 21:54:00,
2013-12-12 16:58:00,23.3,4.6,30.25,SW,219,2.0,8.0,44,0.00,,---,0.00,VWS V14.01,2013-12-12 21:58:00,
2013-12-12 17:00:00,23.2,5.0,30.25,SW,219,0.0,8.0,45,0.00,,---,0.00,VWS V14.01,2013-12-12 22:00:00,
2013-12-12 17:01:00,23.2,5.0,30.25,SW,219,1.0,8.0,45,0.00,,---,0.00,VWS V14.01,2013-12-12 22:01:00,
2013-12-12 17:04:00,23.0,4.3,30.25,SW,225,1.0,4.0,44,0.00,,---,0.00,VWS V14.01,2013-12-12 22:04:00,
2013-12-12 17:06:00,23.0,4.3,30.25,WSW,252,1.0,5.0,44,0.00,,---,0.00,VWS V14.01,2013-12-12 22:06:00,
2013-12-12 17:10:00,22.9,4.3,30.25,WSW,240,2.0,5.0,44,0.00,,---,0.00,VWS V14.01,2013-12-12 22:10:00,
2013-12-12 17:14:00,22.7,4.1,30.25,WSW,244,1.0,8.0,44,0.00,,---,0.00,VWS V14.01,2013-12-12 22:14:00,
2013-12-12 17:18:00,22.7,4.1,30.25,SW,234,0.0,3.0,44,0.00,,---,0.00,VWS V14.01,2013-12-12 22:18:00,
2013-12-12 17:20:00,22.7,4.6,30.25,WSW,245,2.0,3.0,45,0.00,,---,0.00,VWS V14.01,2013-12-12 22:20:00,
2013-12-12 17:22:00,22.7,4.1,30.26,WSW,238,1.0,6.0,44,0.00,,---,0.00,VWS V14.01,2013-12-12 22:22:00,
2013-12-12 17:24:00,22.7,4.1,30.26,WSW,255,2.0,7.0,44,0.00,,---,0.00,VWS V14.01,2013-12-12 22:24:00,
2013-12-12 17:28:00,22.7,4.1,30.26,SW,221,0.0,7.0,44,0.00,,---,0.00,VWS V14.01,2013-12-12 22:28:00,
2013-12-12 17:30:00,22.7,5.0,30.26,SW,221,0.0,7.0,46,0.00,,---,0.00,VWS V14.01,2013-12-12 22:30:00,
2013-12-12 17:31:00,22.5,4.4,30.26,SW,222,2.0,7.0,45,0.00,,---,0.00,VWS V14.01,2013-12-12 22:31:00,
2013-12-12 17:34:00,22.5,3.9,30.26,SW,232,0.0,4.0,44,0.00,,---,0.00,VWS V14.01,2013-12-12 22:34:00,
2013-12-12 17:36:00,22.4,3.8,30.26,SW,236,3.0,4.0,44,0.00,,---,0.00,VWS V14.01,2013-12-12 22:36:00,
2013-12-12 17:38:00,22.4,3.8,30.26,WSW,237,0.0,4.0,44,0.00,,---,0.00,VWS V14.01,2013-12-12 22:38:00,
2013-12-12 17:42:00,22.4,4.3,30.26,SSW,194,3.0,9.0,45,0.00,,---,0.00,VWS V14.01,2013-12-12 22:42:00,
2013-12-12 17:46:00,22.2,4.1,30.26,SSW,211,2.0,9.0,45,0.00,,---,0.00,VWS V14.01,2013-12-12 22:46:00,
2013-12-12 17:48:00,22.2,4.1,30.26,SSW,212,0.0,3.0,45,0.00,,---,0.00,VWS V14.01,2013-12-12 22:48:00,
2013-12-12 17:50:00,22.2,4.1,30.26,SSW,212,0.0,3.0,45,0.00,,---,0.00,VWS V14.01,2013-12-12 22:50:00,
2013-12-12 17:54:00,21.9,3.8,30.26,SSW,212,0.0,3.0,45,0.00,,---,0.00,VWS V14.01,2013-12-12 22:54:00,
2013-12-12 17:56:00,21.9,4.3,30.26,SSW,212,0.0,3.0,46,0.00,,---,0.00,VWS V14.01,2013-12-12 22:56:00,
2013-12-12 17:58:00,21.8,4.2,30.26,SSW,212,0.0,3.0,46,0.00,,---,0.00,VWS V14.01,2013-12-12 22:58:00,
2013-12-12 18:00:00,21.6,4.0,30.26,SSW,212,0.0,3.0,46,0.00,,---,0.00,VWS V14.01,2013-12-12 23:00:00,
2013-12-12 18:02:00,21.4,3.8,30.26,SSW,212,0.0,1.0,46,0.00,,---,0.00,VWS V14.01,2013-12-12 23:02:00,
2013-12-12 18:04:00,21.4,3.8,30.26,SSW,212,0.0,1.0,46,0.00,,---,0.00,VWS V14.01,2013-12-12 23:04:00,
2013-12-12 18:08:00,21.1,4.0,30.26,SSW,212,0.0,1.0,47,0.00,,---,0.00,VWS V14.01,2013-12-12 23:08:00,
2013-12-12 18:10:00,21.1,4.0,30.26,SSW,212,0.0,1.0,47,0.00,,---,0.00,VWS V14.01,2013-12-12 23:10:00,
2013-12-12 18:12:00,21.0,3.9,30.27,SSW,212,1.0,1.0,47,0.00,,---,0.00,VWS V14.01,2013-12-12 23:12:00,
2013-12-12 18:16:00,20.8,4.2,30.27,SSW,212,1.0,1.0,48,0.00,,---,0.00,VWS V14.01,2013-12-12 23:16:00,
2013-12-12 18:18:00,20.8,4.2,30.27,SSW,212,0.0,1.0,48,0.00,,---,0.00,VWS V14.01,2013-12-12 23:18:00,
2013-12-12 18:20:00,20.6,4.5,30.27,SSW,212,0.0,1.0,49,0.00,,---,0.00,VWS V14.01,2013-12-12 23:20:00,
2013-12-12 18:22:00,20.5,4.4,30.27,SSW,212,0.0,1.0,49,0.00,,---,0.00,VWS V14.01,2013-12-12 23:22:00,
2013-12-12 18:24:00,20.3,4.2,30.27,SSW,212,0.0,1.0,49,0.00,,---,0.00,VWS V14.01,2013-12-12 23:24:00,
2013-12-12 18:28:00,20.2,4.6,30.27,SSW,212,0.0,1.0,50,0.00,,---,0.00,VWS V14.01,2013-12-12 23:28:00,
2013-12-12 18:30:00,20.2,4.6,30.27,SSW,212,0.0,1.0,50,0.00,,---,0.00,VWS V14.01,2013-12-12 23:30:00,
2013-12-12 18:31:00,20.2,4.6,30.27,SSW,212,0.0,1.0,50,0.00,,---,0.00,VWS V14.01,2013-12-12 23:31:00,
2013-12-12 18:34:00,20.0,4.8,30.27,SSW,212,0.0,0.0,51,0.00,,---,0.00,VWS V14.01,2013-12-12 23:34:00,
2013-12-12 18:36:00,19.9,4.7,30.27,SSW,212,0.0,1.0,51,0.00,,---,0.00,VWS V14.01,2013-12-12 23:36:00,
2013-12-12 18:40:00,19.7,4.9,30.27,SSW,212,0.0,1.0,52,0.00,,---,0.00,VWS V14.01,2013-12-12 23:40:00,
2013-12-12 18:42:00,19.5,4.8,30.27,SSW,212,0.0,1.0,52,0.00,,---,0.00,VWS V14.01,2013-12-12 23:42:00,
2013-12-12 18:44:00,19.5,4.8,30.27,South,188,1.0,4.0,52,0.00,,---,0.00,VWS V14.01,2013-12-12 23:44:00,
2013-12-12 18:46:00,19.5,4.8,30.27,South,189,0.0,4.0,52,0.00,,---,0.00,VWS V14.01,2013-12-12 23:46:00,
2013-12-12 18:50:00,19.5,5.2,30.27,South,189,0.0,0.0,53,0.00,,---,0.00,VWS V14.01,2013-12-12 23:50:00,
2013-12-12 18:52:00,19.4,5.1,30.27,SSW,200,3.0,4.0,53,0.00,,---,0.00,VWS V14.01,2013-12-12 23:52:00,
2013-12-12 18:56:00,19.5,4.8,30.27,SW,220,1.0,4.0,52,0.00,,---,0.00,VWS V14.01,2013-12-12 23:56:00,
2013-12-12 18:58:00,19.7,4.5,30.27,SW,220,0.0,4.0,51,0.00,,---,0.00,VWS V14.01,2013-12-12 23:58:00,
2013-12-12 19:00:00,19.9,4.7,30.27,SW,220,0.0,4.0,51,0.00,,---,0.00,VWS V14.01,2013-12-13 00:00:00,
2013-12-12 19:02:00,19.9,4.7,30.27,SW,214,0.0,3.0,51,0.00,,---,0.00,VWS V14.01,2013-12-13 00:02:00,
2013-12-12 19:04:00,19.9,4.7,30.27,SW,214,0.0,3.0,51,0.00,,---,0.00,VWS V14.01,2013-12-13 00:04:00,
2013-12-12 19:09:00,19.9,4.7,30.27,SW,214,0.0,3.0,51,0.00,,---,0.00,VWS V14.01,2013-12-13 00:09:00,
2013-12-12 19:11:00,19.9,4.7,30.27,SW,214,0.0,3.0,51,0.00,,---,0.00,VWS V14.01,2013-12-13 00:11:00,
2013-12-12 19:15:00,19.7,4.9,30.27,SW,214,0.0,3.0,52,0.00,,---,0.00,VWS V14.01,2013-12-13 00:15:00,
2013-12-12 19:16:00,19.5,4.8,30.27,SW,215,2.0,3.0,52,0.00,,---,0.00,VWS V14.01,2013-12-13 00:16:00,
2013-12-12 19:19:00,19.5,4.3,30.26,SW,222,0.0,4.0,51,0.00,,---,0.00,VWS V14.01,2013-12-13 00:19:00,
2013-12-12 19:21:00,19.5,4.8,30.27,SW,222,0.0,4.0,52,0.00,,---,0.00,VWS V14.01,2013-12-13 00:21:00,
2013-12-12 19:23:00,19.5,5.2,30.26,SW,222,0.0,4.0,53,0.00,,---,0.00,VWS V14.01,2013-12-13 00:23:00,
2013-12-12 19:27:00,19.2,4.9,30.26,SW,222,0.0,4.0,53,0.00,,---,0.00,VWS V14.01,2013-12-13 00:27:00,
2013-12-12 19:31:00,19.1,4.8,30.26,SW,222,0.0,4.0,53,0.00,,---,0.00,VWS V14.01,2013-12-13 00:31:00,
2013-12-12 19:33:00,19.1,4.8,30.26,SW,222,0.0,0.0,53,0.00,,---,0.00,VWS V14.01,2013-12-13 00:33:00,
2013-12-12 19:37:00,19.1,4.8,30.27,SW,222,0.0,1.0,53,0.00,,---,0.00,VWS V14.01,2013-12-13 00:37:00,
2013-12-12 19:39:00,19.1,4.8,30.26,SW,222,0.0,1.0,53,0.00,,---,0.00,VWS V14.01,2013-12-13 00:39:00,
2013-12-12 19:43:00,19.1,4.8,30.26,SW,222,0.0,1.0,53,0.00,,---,0.00,VWS V14.01,2013-12-13 00:43:00,
2013-12-12 19:45:00,18.9,4.6,30.26,SW,222,0.0,1.0,53,0.00,,---,0.00,VWS V14.01,2013-12-13 00:45:00,
2013-12-12 19:46:00,18.8,4.9,30.26,SW,222,0.0,1.0,54,0.00,,---,0.00,VWS V14.01,2013-12-13 00:46:00,
2013-12-12 19:49:00,18.4,5.3,30.26,SW,222,0.0,0.0,56,0.00,,---,0.00,VWS V14.01,2013-12-13 00:49:00,
2013-12-12 19:51:00,18.4,5.3,30.27,SW,222,0.0,0.0,56,0.00,,---,0.00,VWS V14.01,2013-12-13 00:51:00,
2013-12-12 19:55:00,18.4,4.6,30.26,SW,222,0.0,2.0,54,0.00,,---,0.00,VWS V14.01,2013-12-13 00:55:00,
2013-12-12 19:57:00,18.6,4.7,30.26,SW,222,0.0,2.0,54,0.00,,---,0.00,VWS V14.01,2013-12-13 00:57:00,
2013-12-12 19:59:00,18.6,4.7,30.26,SW,222,0.0,2.0,54,0.00,,---,0.00,VWS V14.01,2013-12-13 00:59:00,
2013-12-12 20:01:00,18.6,5.1,30.26,SSW,194,0.0,3.0,55,0.00,,---,0.00,VWS V14.01,2013-12-13 01:01:00,
2013-12-12 20:05:00,18.8,4.9,30.26,SSW,194,1.0,3.0,54,0.00,,---,0.00,VWS V14.01,2013-12-13 01:05:00,
2013-12-12 20:07:00,18.8,4.9,30.26,SSW,195,0.0,3.0,54,0.00,,---,0.00,VWS V14.01,2013-12-13 01:07:00,
2013-12-12 20:09:00,18.9,5.0,30.26,SSW,195,0.0,3.0,54,0.00,,---,0.00,VWS V14.01,2013-12-13 01:09:00,
2013-12-12 20:11:00,19.1,5.2,30.26,SW,233,5.0,5.0,54,0.00,,---,0.00,VWS V14.01,2013-12-13 01:11:00,
2013-12-12 20:13:00,19.2,4.9,30.26,WSW,241,4.0,5.0,53,0.00,,---,0.00,VWS V14.01,2013-12-13 01:13:00,
2013-12-12 20:15:00,19.4,5.1,30.26,WSW,240,2.0,5.0,53,0.00,,---,0.00,VWS V14.01,2013-12-13 01:15:00,
2013-12-12 20:16:00,19.4,5.1,30.26,SW,234,2.0,5.0,53,0.00,,---,0.00,VWS V14.01,2013-12-13 01:16:00,
2013-12-12 20:17:00,19.5,5.2,30.26,WSW,238,2.0,4.0,53,0.00,,---,0.00,VWS V14.01,2013-12-13 01:17:00,
2013-12-12 20:19:00,19.7,4.9,30.26,WSW,238,0.0,4.0,52,0.00,,---,0.00,VWS V14.01,2013-12-13 01:19:00,
2013-12-12 20:21:00,19.7,4.5,30.26,WSW,237,0.0,4.0,51,0.00,,---,0.00,VWS V14.01,2013-12-13 01:21:00,
2013-12-12 20:25:00,19.7,4.9,30.25,WSW,240,3.0,4.0,52,0.00,,---,0.00,VWS V14.01,2013-12-13 01:25:00,
2013-12-12 20:31:00,19.9,4.7,30.25,WSW,239,1.0,5.0,51,0.00,,---,0.00,VWS V14.01,2013-12-13 01:31:00,
2013-12-12 20:33:00,19.9,4.7,30.25,WSW,237,1.0,3.0,51,0.00,,---,0.00,VWS V14.01,2013-12-13 01:33:00,
2013-12-12 20:35:00,19.9,4.7,30.25,WSW,244,1.0,4.0,51,0.00,,---,0.00,VWS V14.01,2013-12-13 01:35:00,
2013-12-12 20:37:00,19.9,4.7,30.25,SW,220,1.0,4.0,51,0.00,,---,0.00,VWS V14.01,2013-12-13 01:37:00,
2013-12-12 20:41:00,19.9,4.7,30.24,WSW,248,2.0,4.0,51,0.00,,---,0.00,VWS V14.01,2013-12-13 01:41:00,
2013-12-12 20:43:00,19.9,4.7,30.24,WSW,250,0.0,5.0,51,0.00,,---,0.00,VWS V14.01,2013-12-13 01:43:00,
2013-12-12 20:46:00,19.7,4.9,30.24,WSW,246,1.0,5.0,52,0.00,,---,0.00,VWS V14.01,2013-12-13 01:46:00,
2013-12-12 20:49:00,19.7,4.9,30.24,SSW,211,3.0,3.0,52,0.00,,---,0.00,VWS V14.01,2013-12-13 01:49:00,
2013-12-12 20:51:00,19.5,4.8,30.24,SW,215,2.0,3.0,52,0.00,,---,0.00,VWS V14.01,2013-12-13 01:51:00,
2013-12-12 20:53:00,19.5,5.2,30.24,SW,215,0.0,3.0,53,0.00,,---,0.00,VWS V14.01,2013-12-13 01:53:00,
2013-12-12 20:57:00,19.5,5.2,30.24,SW,235,0.0,6.0,53,0.00,,---,0.00,VWS V14.01,2013-12-13 01:57:00,
2013-12-12 20:59:00,19.4,5.1,30.24,SW,236,2.0,6.0,53,0.00,,---,0.00,VWS V14.01,2013-12-13 01:59:00,
2013-12-12 21:01:00,19.4,5.1,30.23,WSW,237,2.0,6.0,53,0.00,,---,0.00,VWS V14.01,2013-12-13 02:01:00,
2013-12-12 21:15:00,19.1,4.8,30.23,WSW,248,1.0,4.0,53,0.00,,---,0.00,VWS V14.01,2013-12-13 02:15:00,
2013-12-12 21:30:00,19.1,4.8,30.22,WSW,248,1.0,4.0,53,0.00,,---,0.00,VWS V14.01,2013-12-13 02:30:00,
2013-12-12 21:45:00,18.4,4.9,30.22,SW,225,1.0,4.0,55,0.00,,---,0.00,VWS V14.01,2013-12-13 02:45:00,
2013-12-12 22:00:00,18.1,5.1,30.22,SW,225,0.0,3.0,56,0.00,,---,0.00,VWS V14.01,2013-12-13 03:00:00,
2013-12-12 22:15:00,18.0,5.3,30.21,SW,225,0.0,3.0,57,0.00,,---,0.00,VWS V14.01,2013-12-13 03:15:00,
2013-12-12 22:30:00,18.4,5.3,30.20,SW,225,0.0,2.0,56,0.00,,---,0.00,VWS V14.01,2013-12-13 03:30:00,
2013-12-12 22:45:00,18.3,5.2,30.19,SW,225,0.0,2.0,56,0.00,,---,0.00,VWS V14.01,2013-12-13 03:45:00,
2013-12-12 23:00:00,17.8,4.8,30.19,SW,225,0.0,2.0,56,0.00,,---,0.00,VWS V14.01,2013-12-13 04:00:00,
2013-12-12 23:15:00,17.0,4.8,30.19,SW,225,0.0,0.0,58,0.00,,---,0.00,VWS V14.01,2013-12-13 04:15:00,
2013-12-12 23:30:00,16.2,5.1,30.19,SW,225,0.0,0.0,61,0.00,,---,0.00,VWS V14.01,2013-12-13 04:30:00,
2013-12-12 23:45:00,15.6,5.6,30.18,SW,225,0.0,1.0,64,0.00,,---,0.00,VWS V14.01,2013-12-13 04:45:00,